Location: DARK SKY Beskydy - Park tmavé oblohy, www.darkskybeskydy.cz
(49.4926°N, 18.5016°E)
Time: 18:40:01
(UTC+02:00)

PCSat - Pass Details

Date: 06 August 2024
Orbit: 781 x 793 km, 67.1° (Epoch: 08 September)

Event Time Altitude Azimuth Distance (km) Brightness Sun altitude
Rises 21:23:57 0° 275° (W) 3,285 13.8 -9.8°
Reaches altitude 10° 21:27:13 10° 295° (WNW) 2,360 13.4 -10.2°
Maximum altitude 21:30:45 17° 337° (NNW) 1,904 12.6 -10.6°
Drops below altitude 10° 21:34:18 10° 18° (NNE) 2,368 12.4 -11.0°
Sets 21:37:36 0° 38° (NE) 3,301 12.9 -11.4°
